Regional Weather Roundup
Issued by NWS Grand Forks, ND

Home | Current Version | Previous Version | Graphics & Text | Print | Product List | Glossary On
Versions: 1 2 3 4 5 6 7 8 9 10 11 12 13 14 15 16 17 18 19 20 21 22 23 24 25 26 27 28 29 30 31 32 33 34 35 36 37 38 39 40 41 42 43 44 45 46 47 48 49 50
000
ASUS43 KFGF 290110
RWRFGF
PRAIRIE TO PINES  WEATHER ROUNDUP
NATIONAL WEATHER SERVICE EASTERN NORTH DAKOTA/GRAND FORKS ND
800 PM CDT SAT MAR 28 2015

 **SATELLITE DATA USED TO AUGMENT SKY COVER AT AUTOMATED STATIONS**
 *****  WEATHER ACROSS EASTERN NORTH DAKOTA  *****

CITY           SKY/WX    TMP DP  RH WIND       PRES   REMARKS
GRAND FORKS    MOCLDY    48  31  51 S21G36    29.64F
GRAND FRKS AFB NOT AVBL
GRAND FRKS NWS   N/A     45 N/A N/A S16         N/A
DEVILS LAKE    CLOUDY    48  36  61 S21G26    29.52F
FARGO          PTCLDY    50  29  44 S24G35    29.72F
WAHPETON ARPT  CLEAR     45  28  53 SE17G23   29.78F
$$

 ***** WEATHER ACROSS CENTRAL AND WESTERN NORTH DAKOTA  *****

CITY           SKY/WX    TMP DP  RH WIND       PRES   REMARKS
BISMARCK       CLOUDY    62  36  37 S23G29    29.46F
MINOT          LGT RAIN  61  44  53 SW13G28   29.44R
JAMESTOWN      MOCLDY    49  33  54 S17G25    29.59F
MINOT AFB      LGT RAIN  57  54  91 W10       29.42R
GARRISON         N/A     62  47  57 W28G37    29.47R
WILLISTON      LGT RAIN  54  48  80 W24G39    29.55R
DICKINSON      LGT RAIN  53  45  74 W33G43    29.61R
HETTINGER      LGT RAIN  55  47  74 NW25G36   29.64R
$$

 *****  OTHER AIRPORT OBSERVATIONS IN OUR AREA  *****

CITY           SKY/WX    TMP DP  RH WIND       PRES   REMARKS
WALHALLA         N/A     46  37  71 S20       29.54F
GRAFTON AIRPOR NOT AVBL
VALLEY CITY AR FAIR      48  32  53 S18       29.64F
CANDO          NOT AVBL
CAVALIER APRT  FAIR      45  34  65 S20G26    29.56F
GWINNER        CLEAR     48  32  53 S17         N/A
ROLLA          MOCLDY    46  39  76 S13       29.51R
 ***** THE ABOVE OBSERVATIONS ARE NON NWS ARE NOT QUALITY
       CONTROLLED AND MAY MIS-REPORT RAIN FOR SNOW...
$$

  *****  WEATHER ACROSS NORTHERN MINNESOTA  *****

CITY           SKY/WX    TMP DP  RH WIND       PRES   REMARKS
FLAG ISLAND    CLOUDY    34  28  80 S16       29.68F WCI  23
WARROAD        CLOUDY    43  28  56 S15G22    29.71F
ROSEAU         CLOUDY    43  30  61 S22G30    29.69F
HALLOCK        MOCLDY    43  30  61 S22       29.61F
THF RVR FALLS  CLOUDY    39  28  65 S18G26    29.71F
BAUDETTE       CLOUDY    41  24  51 S20G29    29.73F
WASKISH        CLOUDY    41  25  52 CALM      29.78F
CROOKSTON      MOCLDY    45  30  57 S26G33    29.70F
STEPHEN NDAWN    N/A     45  30  57 S22         N/A
GREENBUSH NDAW   N/A     39  30  70 S20         N/A
$$
  *****  WEATHER ACROSS CENTRAL AND WEST MINNESOTA  *****

CITY           SKY/WX    TMP DP  RH WIND       PRES   REMARKS
FOSSTON        CLOUDY    37  27  65 S20G26    29.76F
BEMIDJI        CLOUDY    38  25  59 S15G28    29.81F
PARK RAPIDS    CLOUDY    40  26  57 S18       29.84F
ELBOW LAKE     FAIR      40  30  67 SE18G25   29.83F
WADENA         CLOUDY    37  27  65 S14G22    29.86F
DETROIT LAKES  CLOUDY    39  30  70 S18       29.80F
MOORHEAD       PTCLDY    46  30  53 S22G30    29.75F
FERGUS FALLS   PTCLDY    41  27  56 S20       29.83F
MORRIS MN      PTCLDY    41  32  70 SE17      29.84F
STAPLES        MOCLDY    37  25  60 S15       29.89F
$$
  *****  WEATHER ELSEWHERE ACROSS MINNESOTA  *****

CITY           SKY/WX    TMP DP  RH WIND       PRES   REMARKS
DULUTH         PTCLDY    38  14  37 S10       29.96F
INTRNTL FALLS  MOCLDY    41  19  41 S9G18     29.80F
ELY            PTCLDY    37  10  32 S13       29.89F
CLOQUET        PTCLDY    37  12  35 S13G18    29.97F
WHEATON        CLEAR     43  28  56 SE16G23   29.82F
BRAINERD       PTCLDY    38  22  52 S13       29.93F
HIBBING        PTCLDY    37  15  40 S7        29.89F
ALEXANDRIA     CLOUDY    40  28  62 SE18      29.87F
SAINT CLOUD    CLEAR     38  23  55 S13       29.98F
MINNEAPOLIS    PTCLDY    37  21  52 SE12      30.05F
$$

  *****  WEATHER ACROSS SOUTH DAKOTA  *****

CITY           SKY/WX    TMP DP  RH WIND       PRES   REMARKS
SIOUX FALLS    CLEAR     49  27  42 S18G25    29.88F
BROOKINGS      NOT AVBL
WATERTOWN      CLEAR     46  29  51 S18G26    29.79F
HURON          CLEAR     52  32  46 S22G29    29.74F
SISSETON         N/A     47  31  53 S15       29.76F
ABERDEEN       CLEAR     51  31  46 S23       29.69F
MITCHELL       CLEAR     52  33  48 S22       29.79F
PIERRE         CLEAR     62  35  36 SE20      29.56F
MOBRIDGE       PTCLDY    58  36  43 SE20      29.53F
RAPID CITY     PTCLDY    78  22  12 W20G31    29.55S
$$

  *****  SOME WEATHER IN NEARBY STATES *****

CITY           SKY/WX    TMP DP  RH WIND       PRES   REMARKS
GLASGOW MT     LGT RAIN  51  33  50 W31G44    29.68R
GREAT FALLS MT LGT RAIN  49  25  39 W29G36    29.99R
CHEYENNE WY    PTCLDY    64  24  21 W23G36    29.94S
SCOTTSBLUFF NE PTCLDY    75  26  16 W15G24    29.74F
OMAHA NE       PTCLDY    49  31  49 SE15      30.02F
DES MOINES IA  CLEAR     44  21  40 S10       30.12F
DAVENPORT IA   CLEAR     34  11  38 S9        30.24R
CHICAGO IL     CLEAR     30   9  41 SE13      30.27F WCI  20
EAU CLAIRE WI  CLEAR     35  10  35 S10       30.11F
LA CROSSE WI   CLEAR     37  15  40 S8        30.15F
$$

  *****  SOME NATIONAL WEATHER *****

CITY           SKY/WX    TMP DP  RH WIND       PRES   REMARKS
LA GUARDIA NY  MOCLDY    32  21  64 NW18G24   30.04R WCI  20
RALEIGH NC     CLEAR     38  12  34 VRB5      30.19R
ATLANTA GA     PTCLDY    44  15  31 W7        30.19R
NEW ORLEANS LA CLEAR     60  46  59 SE9       30.19S
OKLAHOMA CITY  CLEAR     65  47  52 SE9       29.97S
ALBUQUERQUE NM CLEAR     78  14   9 W9        30.08S
SALT LAKE CITY MOCLDY    67  32  27 N8        30.12R
LOS ANGELES CA MOSUNNY   64  58  80 W12       30.01S
BOISE ID       SUNNY     59  27  29 N14       30.27S
SEATTLE WA     CLOUDY    56  43  61 SW9       30.34R
$$

*** WEATHER ACROSS MANITOBA...SASKATCHEWAN AND ONTARIO ***
                ***ONTARIO***

CITY           SKY/WX    TMP DP  RH WIND       PRES   REMARKS
GERALDTON      PTCLDY    27  16  63 S12G20    29.91F WCI  16
THUNDER BAY    PTCLDY    30  14  51 S7        29.98F WCI  23
SIOUX LOOKOUT  CLOUDY    37  14  38 S12       29.73F
TORONTO        CLEAR     25   1  36 N13       30.22R WCI  13
BIG TROUT LK   LGT RAIN  36  25  64 SW14G24   29.57S
PICKLE LAKE    CLOUDY    36  12  38 SW14G20   29.68F
DRYDEN         PTCLDY    37  18  44 S17       29.72F
KENORA         CLOUDY    39  23  52 S20G33    29.66F
$$
                *** MANITOBA***

CITY           SKY/WX    TMP DP  RH WIND       PRES   REMARKS
BRANDON        CLOUDY    45  39  81 SE8       29.44F
DAUPHIN        CLOUDY    43  36  75 NW8       29.45R
ISLAND LAKE    FLURRIES  32  32 100 E2        29.51S
PILOT MOUND      N/A     43  37  81 S20G25      N/A
THE PAS        LGT RAIN  36  32  87 NW9       29.50R
THOMPSON       LGT SNOW  32  32 100 W3        29.48R
WINNIPEG       CLOUDY    43  32  65 S23G35    29.56F
LYNN LAKE      PTCLDY    41  32  70 NW9       29.48R
CHURCHILL      MOCLDY    30  27  86 N18G25    29.41R WCI  18
GILLAM         CLOUDY    32  30  93 SW9       29.45F WCI  24
$$
                ***SASKATCHEWAN***

CITY           SKY/WX    TMP DP  RH WIND       PRES   REMARKS
ESTEVAN        LGT RAIN  52  46  82 NW22G32   29.51R
KINDERSLEY     MOCLDY    41  39  93 NW14G24   29.79R
LLOYDMINSTER   PTCLDY    43  36  75 NW9       29.78R
PRINCE ALBERT  MOCLDY    41  36  81 NW8       29.65R
REGINA         CLOUDY    43  41  93 NW16      29.56R
YORKTON        LGT RAIN  39  39 100 NW14      29.48R FOG
N. BATTLEFORD  CLEAR     43  37  81 NW10      29.75R
LA RONGE       MOCLDY    45  28  53 W7        29.63R
SASKATOON      MOCLDY    43  36  75 N12G20    29.71R
SWIFT CURRENT  CLOUDY    39  37  93 NW20G31   29.70R FOG
$$
NOTE: THESE ARE AUTOMATED STATIONS WITH LIMITED QUALITY CONTROL
      "FAIR" INDICATES FEW OR NO CLOUDS BELOW 12,000 FEET WITH NO
      SIGNIFICANT WEATHER AND/OR OBSTRUCTIONS TO VISIBILITY.
      SKY/WX - SKY CONDITION AND SIGNIFICANT WEATHER.
      TMP - AIR TEMPERATURE.    DP   - DEWPOINT TEMPERATURE.
      RH  - RELATIVE HUMIDITY.  PRES - PRESSURE.
      HX  - HEAT INDEX.         WCI  - WIND CHILL INDEX.
$


USA.gov is the U.S. government's official web portal to all federal, state and local government web resources and services.